| time (UTC) | temp C | wind direction | speed KPH | gust KPH | rain 1hr cm | rain 24hr cm | rain mn cm | humidity % | barometer mb |
| 20260506175003 | 16 | 195 | 3.2 | 9.7 | 0.00 | 0.13 | 0.03 | 62 | 1011.8 |
| 20260506174003 | 16 | 197 | 3.2 | 12.9 | 0.00 | 0.13 | 0.03 | 61 | 1011.6 |
| 20260506173003 | 16 | 205 | 3.2 | 11.3 | 0.00 | 0.13 | 0.03 | 60 | 1011.5 |
| 20260506172003 | 17 | 180 | 6.4 | 17.7 | 0.00 | 0.15 | 0.03 | 60 | 1011.4 |
| 20260506171003 | 17 | 186 | 4.8 | 17.7 | 0.00 | 0.15 | 0.03 | 57 | 1011.5 |
| 20260506170003 | 17 | 189 | 6.4 | 16.1 | 0.00 | 0.15 | 0.03 | 57 | 1011.3 |
| 20260506165003 | 17 | 202 | 3.2 | 11.3 | 0.00 | 0.18 | 0.03 | 55 | 1011.5 |
| 20260506164003 | 17 | 205 | 6.4 | 16.1 | 0.00 | 0.18 | 0.03 | 57 | 1011.3 |
| 20260506163003 | 17 | 199 | 6.4 | 24.1 | 0.00 | 0.18 | 0.03 | 57 | 1011.2 |
| 20260506162003 | 18 | 212 | 4.8 | 19.3 | 0.00 | 0.18 | 0.03 | 54 | 1011.0 |
| 20260506161003 | 19 | 211 | 3.2 | 8.0 | 0.00 | 0.20 | 0.03 | 53 | 1011.2 |
| 20260506160003 | 18 | 190 | 6.4 | 19.3 | 0.00 | 0.20 | 0.03 | 54 | 1010.9 |
| 20260506155003 | 18 | 202 | 4.8 | 22.5 | 0.00 | 0.23 | 0.03 | 54 | 1011.3 |
| 20260506154003 | 18 | 180 | 4.8 | 17.7 | 0.00 | 0.23 | 0.03 | 52 | 1011.1 |
| 20260506153003 | 19 | 193 | 4.8 | 14.5 | 0.00 | 0.23 | 0.03 | 52 | 1011.1 |
| 20260506152003 | 18 | 179 | 4.8 | 16.1 | 0.00 | 0.23 | 0.03 | 53 | 1011.1 |
| 20260506151003 | 19 | 203 | 4.8 | 17.7 | 0.00 | 0.23 | 0.03 | 53 | 1011.0 |
| 20260506150004 | 18 | 217 | 3.2 | 12.9 | 0.00 | 0.23 | 0.03 | 55 | 1011.2 |
| 20260506145004 | 18 | 178 | 4.8 | 14.5 | 0.00 | 0.23 | 0.03 | 57 | 1011.0 |
| 20260506144003 | 19 | 205 | 3.2 | 11.3 | 0.00 | 0.23 | 0.03 | 53 | 1011.0 |
| 20260506143003 | 18 | 300 | 8.0 | 24.1 | 0.00 | 0.23 | 0.03 | 52 | 1011.2 |
| 20260505204003 | 9 | 0 | 0.0 | 0.0 | 0.00 | 0.71 | 0.71 | 92 | 1012.8 |
| 20260505203003 | 10 | 0 | 0.0 | 0.0 | 0.00 | 0.76 | 0.71 | 92 | 1012.4 |
| 20260505202003 | 10 | 0 | 0.0 | 0.0 | 0.00 | 0.76 | 0.71 | 91 | 1012.3 |
| 20260505201003 | 10 | 360 | 0.0 | 4.8 | 0.03 | 0.97 | 0.71 | 91 | 1012.0 |
| 20260505200003 | 10 | 360 | 1.6 | 6.4 | 0.03 | 0.99 | 0.71 | 90 | 1011.9 |
| 20260505195003 | 10 | 346 | 1.6 | 6.4 | 0.03 | 0.99 | 0.71 | 90 | 1011.6 |
| 20260505194003 | 10 | 360 | 1.6 | 8.0 | 0.03 | 0.99 | 0.71 | 90 | 1011.4 |
| 20260505193003 | 10 | 0 | 0.0 | 0.0 | 0.10 | 0.99 | 0.71 | 90 | 1011.4 |
| 20260505192003 | 10 | 90 | 0.0 | 1.6 | 0.10 | 0.99 | 0.71 | 89 | 1011.5 |
| 20260505191003 | 10 | 0 | 0.0 | 0.0 | 0.05 | 0.97 | 0.69 | 89 | 1011.6 |
| 20260505190004 | 11 | 0 | 0.0 | 0.0 | 0.05 | 0.97 | 0.69 | 88 | 1011.7 |
| 20260505185003 | 11 | 90 | 0.0 | 4.8 | 0.05 | 0.97 | 0.69 | 88 | 1011.4 |
| 20260505184003 | 11 | 90 | 0.0 | 4.8 | 0.05 | 0.97 | 0.69 | 87 | 1011.5 |
| 20260505183003 | 11 | 90 | 0.0 | 3.2 | 0.00 | 0.89 | 0.64 | 86 | 1011.5 |
| 20260505182003 | 11 | 57 | 1.6 | 6.4 | 0.03 | 0.89 | 0.64 | 85 | 1011.7 |
| 20260505181003 | 11 | 324 | 1.6 | 9.7 | 0.03 | 0.89 | 0.64 | 84 | 1011.7 |
| 20260505180003 | 11 | 296 | 4.8 | 12.9 | 0.03 | 0.89 | 0.64 | 82 | 1011.7 |